CW3540 Copenhagen DK current weather conditions

sailwx.info

Wind from 231 at 1 knots gusting 6

Air temperature 17.8° C
Dewpoint 16.1° C

Last reported at 2019-Aug-23 21:10 UTC.
Time now 2019-Aug-23 21:54 UTC

Location: N 55°44' E 012°24'.
View on Google Maps.

See reports from other nearby stations

  
Tides and Currents Weather Stations Pressure Air Temp Water Temp Dewpoint Dewpoint Depression Visibility Wind Speed Wind Dir Waves Ship Positions
date/time (UTC)wind fromknots sea level pressurealtimeterstation pressurevisibilityair tempwater tempwave heightnotes
2019-Aug-23 21:10 231 1 gusting 6 17.8
2019-Aug-23 21:00 231 17.8
2019-Aug-23 20:50 231 17.8
2019-Aug-23 20:20 231 18.3
2019-Aug-23 20:10 231 18.9
2019-Aug-23 20:00 231 18.9
2019-Aug-23 19:50 231 18.9
2019-Aug-23 19:40 231 19.4
2019-Aug-23 19:30 231 19.4
2019-Aug-23 19:20 231 20.0
2019-Aug-23 19:10 231 20.0
2019-Aug-23 18:50 231 20.6
2019-Aug-23 18:40 231 5 gusting 6 21.1
2019-Aug-23 18:20 231 21.7
2019-Aug-23 18:10 256 21.7
2019-Aug-23 18:00 243 4 gusting 7 21.7
2019-Aug-23 17:50 243 22.2
2019-Aug-23 17:30 257 22.2
2019-Aug-23 17:10 258 11 gusting 13 22.8
2019-Aug-23 16:50 232 13 gusting 14 22.8
2019-Aug-23 16:40 266 7 gusting 17 23.3
2019-Aug-23 16:10 266 10 gusting 17 23.3
2019-Aug-23 16:00 269 13 gusting 18 23.3
2019-Aug-23 15:50 289 14 gusting 18 23.3
2019-Aug-23 15:40 301 11 gusting 17 23.3
2019-Aug-23 15:30 287 14 gusting 19 23.9
2019-Aug-23 15:10 261 12 gusting 18 24.4
2019-Aug-23 15:00 280 15 gusting 17 25.0
2019-Aug-23 14:50 299 17 gusting 21 24.4
2019-Aug-23 14:40 269 18 gusting 20 24.4
2019-Aug-23 14:30 283 19 gusting 25 24.4
2019-Aug-23 14:20 288 21 gusting 20 25.0
2019-Aug-23 14:00 270 18 gusting 19 25.0
2019-Aug-23 13:50 270 15 gusting 20 25.0
2019-Aug-23 13:40 247 11 gusting 25 25.0
2019-Aug-23 13:00 234 14 gusting 18 25.6
2019-Aug-23 12:50 244 10 gusting 19 25.6
2019-Aug-23 12:40 270 12 gusting 18 25.6
2019-Aug-23 12:30 226 22 gusting 21 26.1
2019-Aug-23 12:20 228 13 gusting 21 25.6
2019-Aug-23 12:10 236 15 gusting 21 25.6
2019-Aug-23 11:50 189 17 gusting 21 25.0
2019-Aug-23 11:40 292 21 gusting 20 25.6
2019-Aug-23 11:30 241 19 gusting 20 25.6
2019-Aug-23 11:20 194 13 gusting 18 25.6
2019-Aug-23 11:10 199 2 22.8
2019-Aug-23 10:50 199 2 22.8
2019-Aug-23 10:40 199 2 22.8
2019-Aug-23 10:20 199 2 22.8
2019-Aug-23 10:10 221 7 gusting 14 23.9
2019-Aug-23 10:00 236 6 gusting 17 23.9
2019-Aug-23 09:40 220 11 gusting 18 23.3
2019-Aug-23 09:30 199 2 22.8
2019-Aug-23 09:10 230 14 gusting 19 22.8
2019-Aug-23 09:00 209 14 gusting 18 23.3
2019-Aug-23 08:40 206 11 gusting 17 22.8
2019-Aug-23 08:30 205 13 gusting 19 22.2
2019-Aug-23 08:10 232 0 gusting 13 21.7
2019-Aug-23 08:00 227 4 gusting 17 21.7
2019-Aug-23 07:40 234 11 gusting 19 21.1
2019-Aug-23 07:30 237 13 gusting 18 20.6
2019-Aug-23 07:20 227 10 gusting 13 20.6
2019-Aug-23 07:10 219 6 gusting 13 20.0
2019-Aug-23 07:00 212 9 gusting 13 19.4
2019-Aug-23 06:40 239 11 gusting 13 18.9
2019-Aug-23 06:00 189 8 gusting 13 16.7
2019-Aug-23 05:40 160 16.1
2019-Aug-23 05:30 160 15.6
2019-Aug-23 05:20 160 15.6
2019-Aug-23 05:10 160 15.6
2019-Aug-23 05:00 160 15.0
2019-Aug-23 04:50 160 15.0
2019-Aug-23 04:40 160 15.0
2019-Aug-23 04:30 160 15.0
2019-Aug-23 04:20 160 15.0
2019-Aug-23 04:10 160 15.0
2019-Aug-23 04:00 160 15.0
2019-Aug-23 03:50 160 15.0
2019-Aug-23 03:40 160 15.0
2019-Aug-23 03:30 160 15.0
2019-Aug-23 03:20 160 15.0
2019-Aug-23 03:00 159 14.4
2019-Aug-23 02:50 159 14.4
2019-Aug-23 02:40 159 14.4
2019-Aug-23 02:30 159 14.4
2019-Aug-23 02:20 159 14.4
2019-Aug-23 02:10 159 14.4
2019-Aug-23 02:00 159 14.4
2019-Aug-23 01:50 159 0 gusting 6 13.9
2019-Aug-23 01:40 159 13.9
2019-Aug-23 01:30 159 13.9
2019-Aug-23 01:20 159 13.9
2019-Aug-23 01:10 159 13.9
2019-Aug-23 01:00 159 13.3
2019-Aug-23 00:50 159 13.3
2019-Aug-23 00:40 159 13.9
2019-Aug-23 00:30 159 13.9
2019-Aug-23 00:20 159 13.9
2019-Aug-23 00:10 159 13.9
2019-Aug-23 00:00 159 13.9
2019-Aug-22 23:40 159 14.4
2019-Aug-22 23:20 159 14.4
2019-Aug-22 23:00 159 15.0
2019-Aug-22 22:50 159 15.0
2019-Aug-22 22:40 159 15.6
2019-Aug-22 22:30 159 15.6
2019-Aug-22 22:10 159 16.1
2019-Aug-22 21:50 159 16.7
2019-Aug-22 21:30 159 16.7
2019-Aug-22 21:20 159 16.7
2019-Aug-22 21:10 159 17.2
2019-Aug-22 21:00 159 17.2
2019-Aug-22 20:50 159 17.2
2019-Aug-22 20:40 159 17.2
2019-Aug-22 20:30 159 17.2
2019-Aug-22 20:20 159 17.2
2019-Aug-22 20:00 160 17.2
2019-Aug-22 19:40 159 17.8
2019-Aug-22 19:20 160 0 gusting 7 17.8
2019-Aug-22 19:10 160 2 gusting 7 17.8
2019-Aug-22 19:00 158 1 gusting 11 18.3
2019-Aug-22 18:40 153 18.3
2019-Aug-22 18:20 150 1 gusting 6 18.9
2019-Aug-22 18:00 148 2 gusting 10 18.9
2019-Aug-22 17:50 146 1 gusting 14 18.9
2019-Aug-22 17:40 171 2 gusting 13 19.4
2019-Aug-22 17:20 166 20.0
2019-Aug-22 17:10 160 4 gusting 17 20.0
2019-Aug-22 17:00 143 6 gusting 17 20.0
2019-Aug-22 16:40 152 8 gusting 14 20.6
2019-Aug-22 16:30 211 12 gusting 14 21.1
2019-Aug-22 16:20 178 6 gusting 14 21.1
2019-Aug-22 16:10 162 11 gusting 20 21.7
2019-Aug-22 16:00 183 6 gusting 25 22.2
2019-Aug-22 15:50 188 11 gusting 18 22.2
2019-Aug-22 15:40 161 12 gusting 18 22.2
2019-Aug-22 15:00 154 16 gusting 20 22.2
2019-Aug-22 14:50 138 13 gusting 19 22.2
2019-Aug-22 14:40 149 9 gusting 21 22.2
2019-Aug-22 14:20 179 18 gusting 21 21.7
2019-Aug-22 14:10 152 18 gusting 25 22.2
2019-Aug-22 14:00 138 11 gusting 21 22.2
2019-Aug-22 13:50 142 15 gusting 20 21.7
2019-Aug-22 13:40 150 19 gusting 25 21.7
2019-Aug-22 13:30 151 18 gusting 26 21.7
2019-Aug-22 13:20 155 23 gusting 25 22.2
2019-Aug-22 13:10 155 11 gusting 21 22.2
2019-Aug-22 13:00 161 17 gusting 26 22.2
2019-Aug-22 12:50 171 20 gusting 25 22.2
2019-Aug-22 12:40 162 19 gusting 26 22.8
2019-Aug-22 11:40 133 13 gusting 21 22.2
2019-Aug-22 11:30 172 19 gusting 25 22.8
2019-Aug-22 11:20 179 19 gusting 21 22.2
2019-Aug-22 11:10 167 19 gusting 21 22.2
2019-Aug-22 11:00 135 11 gusting 27 22.2
2019-Aug-22 10:50 175 13 gusting 20 21.7
2019-Aug-22 10:40 157 13 gusting 19 21.7
2019-Aug-22 10:30 178 18 gusting 28 21.7
2019-Aug-22 10:20 192 15 gusting 33 21.7
2019-Aug-22 10:10 166 12 gusting 21 21.7
2019-Aug-22 10:00 186 15 gusting 28 21.7
2019-Aug-22 09:50 176 5 gusting 26 21.7
2019-Aug-22 09:40 166 14 gusting 25 21.7
2019-Aug-22 09:30 141 19 gusting 21 21.7
2019-Aug-22 09:20 152 8 gusting 20 21.1
2019-Aug-22 09:00 179 17 gusting 18 21.7
2019-Aug-22 08:40 163 8 gusting 19 21.1
2019-Aug-22 08:30 142 6 gusting 19 21.1
2019-Aug-22 08:20 179 7 gusting 14 20.6
2019-Aug-22 08:00 187 15 gusting 20 20.6
2019-Aug-22 07:50 186 5 gusting 13 20.0
2019-Aug-22 07:40 161 13 gusting 18 19.4
2019-Aug-22 07:30 180 2 gusting 13 19.4
2019-Aug-22 07:10 185 7 gusting 11 18.9
2019-Aug-22 06:50 174 17.8
2019-Aug-22 06:40 174 17.2
2019-Aug-22 06:30 213 16.7
2019-Aug-22 06:20 217 4 gusting 10 16.1
2019-Aug-22 06:10 258 15.6
2019-Aug-22 05:40 273 13.3
2019-Aug-22 05:10 273 10.0
2019-Aug-22 04:50 273 9.4
2019-Aug-22 04:40 273 8.9
2019-Aug-22 04:30 273 8.9
2019-Aug-22 04:00 273 8.9
2019-Aug-22 03:50 273 8.9
2019-Aug-22 03:30 273 8.9
2019-Aug-22 03:20 273 9.4
2019-Aug-22 03:00 273 9.4
2019-Aug-22 02:50 273 9.4
2019-Aug-22 02:40 273 9.4
2019-Aug-22 02:30 273 10.0
2019-Aug-22 02:00 273 10.0
2019-Aug-22 01:50 273 10.6
2019-Aug-22 01:30 273 10.6
2019-Aug-22 01:20 273 10.6
2019-Aug-22 01:10 273 11.1
2019-Aug-22 01:00 273 11.1
2019-Aug-22 00:40 273 11.1
2019-Aug-22 00:20 273 11.1
2019-Aug-22 00:10 273 10.6
2019-Aug-21 23:50 273 11.1
2019-Aug-21 23:20 273 11.7
2019-Aug-21 23:10 273 11.7
2019-Aug-21 23:00 273 11.7
2019-Aug-21 22:40 273 12.2
2019-Aug-21 22:30 273 12.2
2019-Aug-21 22:10 273 12.2
2019-Aug-21 22:00 273 12.2
2019-Aug-21 21:40 273 12.2
2019-Aug-21 21:10 273 12.8